DW6885 Weather Reports


Display with metric or nautical units.
time (UTC)temp
F
wind
direction
speed
MPH
gust
MPH
rain 1hr
in
rain 24hr
in
rain mn
in
humidity
%
barometer
mb
20150306195510 27 330 2.0 8.0 0.00 0.00 0.00 28 1029.0
20150306195308 26 261 1.0 8.0 0.00 0.00 0.00 27 1029.0
20150306194511 26 357 3.0 8.0 0.00 0.00 0.00 27 1029.2
20150306193806 25 222 1.0 6.0 0.00 0.00 0.00 29 1029.2
20150306192205 26 44 2.0 6.0 0.00 0.00 0.00 27 1029.3
20150306191510 26 197 1.0 6.0 0.00 0.00 0.00 28 1029.3
20150306190706 25 323 2.0 7.0 0.00 0.00 0.00 29 1029.4
20150306190510 25 317 3.0 6.0 0.00 0.00 0.00 27 1029.4
20150306185117 24 212 1.0 6.0 0.00 0.00 0.00 25 1029.6
20150306183706 24 21 1.0 8.0 0.00 0.00 0.00 28 1029.9
20150306183510 24 327 2.0 8.0 0.00 0.00 0.00 30 1029.9
20150306182510 25 286 2.0 6.0 0.00 0.00 0.00 29 1030.1
20150306182013 24 168 3.0 8.0 0.00 0.00 0.00 30 1030.2
20150306181509 24 29 2.0 5.0 0.00 0.00 0.00 27 1030.2
20150306180511 24 194 2.0 5.0 0.00 0.00 0.00 29 1030.3
20150306180507 23 189 1.0 5.0 0.00 0.00 0.00 29 1030.3
20150306174906 23 186 1.0 8.0 0.00 0.00 0.00 31 1030.5
20150306174510 24 193 3.0 8.0 0.00 0.00 0.00 30 1030.6
20150306173510 23 242 3.0 8.0 0.00 0.00 0.00 31 1030.8
20150306173506 22 340 3.0 8.0 0.00 0.00 0.00 31 1030.7
20150306172510 23 196 3.0 6.0 0.00 0.00 0.00 30 1030.9
20150306171906 22 177 2.0 7.0 0.00 0.00 0.00 32 1031.1
20150306170406 22 355 2.0 6.0 0.00 0.00 0.00 32 1031.3
20150306165510 22 303 1.0 5.0 0.00 0.00 0.00 32 1031.3
20150306164806 21 263 2.0 6.0 0.00 0.00 0.00 30 1031.4
20150306163510 21 236 1.0 6.0 0.00 0.00 0.00 32 1031.5
20150306163206 20 229 1.0 6.0 0.00 0.00 0.00 32 1031.5
20150306162509 20 291 3.0 7.0 0.00 0.00 0.00 35 1031.6
20150306161706 19 189 1.0 7.0 0.00 0.00 0.00 33 1031.6
20150306161510 20 243 2.0 7.0 0.00 0.00 0.00 36 1031.6
20150306160510 18 173 2.0 5.0 0.00 0.00 0.00 36 1031.7
20150306155510 18 323 2.0 5.0 0.00 0.00 0.00 36 1031.9
20150306154616 17 5 1.0 6.0 0.00 0.00 0.00 38 1031.9
20150306154509 17 202 2.0 6.0 0.00 0.00 0.00 37 1031.9
20150306153510 17 269 2.0 7.0 0.00 0.00 0.00 38 1032.0
20150306153007 16 233 0.0 6.0 0.00 0.00 0.00 38 1032.1
20150306151509 16 18 2.0 5.0 0.00 0.00 0.00 40 1032.2
20150306151507 15 29 1.0 5.0 0.00 0.00 0.00 40 1032.2
20150306150510 15 242 1.0 5.0 0.00 0.00 0.00 41 1032.1
20150306145907 14 315 1.0 4.0 0.00 0.00 0.00 43 1032.1
20150306144406 13 302 3.0 8.0 0.00 0.00 0.00 43 1032.1
20150306143509 13 292 1.0 6.0 0.00 0.00 0.00 46 1032.2
20150306142906 12 134 1.0 6.0 0.00 0.00 0.00 47 1032.2
20150306141510 11 198 1.0 5.0 0.00 0.00 0.00 46 1032.1
20150306141406 11 198 1.0 5.0 0.00 0.00 0.00 46 1032.1
20150306140510 11 356 2.0 7.0 0.00 0.00 0.00 47 1032.2
20150306135706 10 273 1.0 6.0 0.00 0.00 0.00 49 1032.3
20150306134509 10 315 3.0 7.0 0.00 0.00 0.00 52 1032.2
20150306134206 9 318 1.0 6.0 0.00 0.00 0.00 53 1032.2
20150306133509 9 27 2.0 3.0 0.00 0.00 0.00 55 1032.2
20150306132705 7 106 1.0 4.0 0.00 0.00 0.00 59 1032.1
20150306131205 4 69 0.0 6.0 0.00 0.00 0.00 68 1032.0
20150306125706 0 329 0.0 1.0 0.00 0.00 0.00 76 1032.1
20150306125510 0 329 0.0 1.0 0.00 0.00 0.00 77 1032.0
20150306124510 -1 329 0.0 2.0 0.00 0.00 0.00 78 1032.0
20150306124007 -1 329 0.0 1.0 0.00 0.00 0.00 78 1031.9
20150306123510 -2 329 0.0 0.0 0.00 0.00 0.00 78 1031.8
20150306122506 -3 329 0.0 0.0 0.00 0.00 0.00 77 1031.5
20150306121510 -4 329 0.0 0.0 0.00 0.00 0.00 76 1031.4
20150306121006 -3 329 0.0 0.0 0.00 0.00 0.00 76 1031.4
20150306120510 -4 329 0.0 0.0 0.00 0.00 0.00 77 1031.3
20150306115510 -4 329 0.0 0.0 0.00 0.00 0.00 77 1031.1
20150306115506 -3 329 0.0 0.0 0.00 0.00 0.00 77 1031.1
20150306114511 -4 329 0.0 0.0 0.00 0.00 0.00 75 1031.1
20150306114005 -3 329 0.0 0.0 0.00 0.00 0.00 75 1030.8
20150306112307 -2 329 0.0 2.0 0.00 0.00 0.00 74 1030.6
20150306111510 -2 329 0.0 3.0 0.00 0.00 0.00 74 1030.4
20150306110806 -2 329 0.0 3.0 0.00 0.00 0.00 75 1030.2
20150306105510 -3 333 0.0 1.0 0.00 0.00 0.00 74 1030.2
20150306105205 -2 333 0.0 1.0 0.00 0.00 0.00 74 1030.1
20150306103706 -2 333 0.0 2.0 0.00 0.00 0.00 74 1030.1
20150306102510 -2 333 0.0 1.0 0.00 0.00 0.00 73 1030.0
20150306102206 -1 333 0.0 1.0 0.00 0.00 0.00 73 1029.9
20150306100706 -1 333 0.0 4.0 0.00 0.00 0.00 72 1029.9
20150306100510 -2 333 2.0 3.0 0.00 0.00 0.00 72 1029.8
20150306095206 -1 307 0.0 3.0 0.00 0.00 0.00 71 1029.7
20150306094510 -2 142 0.0 0.0 0.00 0.00 0.00 70 1029.6
20150306093510 -1 142 0.0 1.0 0.00 0.00 0.00 69 1029.4
20150306093506 0 142 0.0 1.0 0.00 0.00 0.00 69 1029.4
20150306092511 0 142 0.0 0.0 0.00 0.00 0.00 67 1029.4
20150306092006 0 142 0.0 0.0 0.00 0.00 0.00 66 1029.2
20150306091512 1 142 0.0 0.0 0.00 0.00 0.00 66 1029.1
20150306090505 1 142 0.0 0.0 0.00 0.00 0.00 64 1029.0
20150306085006 2 142 0.0 1.0 0.00 0.00 0.00 64 1028.7
20150306083510 4 142 0.0 5.0 0.00 0.00 0.00 60 1028.6
20150306083307 4 142 0.0 5.0 0.00 0.00 0.00 60 1028.5
20150306082510 4 309 2.0 5.0 0.00 0.00 0.00 60 1028.3
20150306081807 4 5 0.0 3.0 0.00 0.00 0.00 59 1028.2
20150306080510 5 1 2.0 9.0 0.00 0.00 0.00 59 1028.3
20150306080206 5 343 1.0 9.0 0.00 0.00 0.00 59 1028.3
20150306075510 5 272 2.0 9.0 0.00 0.00 0.00 58 1028.2
20150306074706 5 5 2.0 8.0 0.00 0.00 0.00 58 1028.2
20150306074510 5 133 3.0 10.0 0.00 0.00 0.00 58 1028.1
20150306073510 5 305 2.0 10.0 0.00 0.00 0.00 59 1028.1
20150306073206 5 11 2.0 8.0 0.00 0.00 0.00 59 1028.1
20150306072510 6 296 1.0 10.0 0.00 0.00 0.00 59 1028.1
20150306071706 5 5 1.0 10.0 0.00 0.00 0.00 58 1027.9
20150306070512 6 327 2.0 8.0 0.00 0.00 0.00 58 1027.9
20150306070206 6 333 2.0 9.0 0.00 0.00 0.00 58 1027.9
20150306065512 6 321 4.0 12.0 0.00 0.00 0.00 58 1028.0
20150306064512 6 320 2.0 10.0 0.00 0.00 0.00 58 1027.9
20150306064506 6 327 2.0 10.0 0.00 0.00 0.00 58 1027.9
20150306063511 7 333 3.0 8.0 0.00 0.00 0.00 58 1027.9
20150306063006 6 286 1.0 8.0 0.00 0.00 0.00 58 1027.9
20150306062511 7 309 3.0 8.0 0.00 0.00 0.00 59 1027.8
20150306061511 6 34 1.0 3.0 0.00 0.00 0.00 60 1027.6
20150306061506 6 32 1.0 4.0 0.00 0.00 0.00 60 1027.5
20150306060510 6 25 0.0 3.0 0.00 0.00 0.00 62 1027.4
20150306060006 6 323 0.0 4.0 0.00 0.00 0.00 62 1027.4
20150306055511 6 246 0.0 1.0 0.00 0.00 0.00 62 1027.2
20150306054506 6 246 0.0 2.0 0.00 0.00 0.00 61 1027.1
20150306052806 7 315 0.0 3.0 0.00 0.00 0.00 60 1026.8
20150306052511 8 315 0.0 12.0 0.00 0.00 0.00 59 1026.8
20150306051511 8 200 3.0 12.0 0.00 0.00 0.00 59 1026.5
20150306051309 8 324 0.0 11.0 0.00 0.00 0.00 60 1026.6
20150306050510 9 32 2.0 3.0 0.00 0.00 0.00 59 1026.5
20150306045706 9 61 0.0 6.0 0.00 0.00 0.00 58 1026.4
20150306045510 10 41 2.0 8.0 0.00 0.00 0.00 57 1026.4
20150306044509 10 312 1.0 3.0 0.00 0.00 0.00 59 1026.3
20150306044205 9 294 0.0 4.0 0.00 0.00 0.00 60 1026.3
20150306043509 10 116 1.0 3.0 0.00 0.00 0.00 61 1026.2
20150306042616 10 72 1.0 4.0 0.00 0.00 0.00 59 1026.1
20150306042510 11 343 1.0 3.0 0.00 0.00 0.00 58 1026.2
20150306041509 11 288 1.0 2.0 0.00 0.00 0.00 60 1025.8
20150306041205 11 287 0.0 2.0 0.00 0.00 0.00 60 1026.0
20150306035616 12 288 0.0 2.0 0.00 0.00 0.00 57 1025.8
20150306035510 13 287 0.0 2.0 0.00 0.00 0.00 56 1025.8
20150306034007 13 211 0.0 3.0 0.00 0.00 0.00 56 1025.4
20150306032509 14 347 3.0 6.0 0.00 0.00 0.00 56 1025.5
20150306032505 13 336 3.0 6.0 0.00 0.00 0.00 56 1025.5
20150306031509 14 22 0.0 3.0 0.00 0.00 0.00 57 1025.2
20150306030906 14 47 0.0 2.0 0.00 0.00 0.00 58 1025.1
20150306030509 14 339 0.0 1.0 0.00 0.00 0.00 58 1024.9
20150306025509 14 339 0.0 3.0 0.00 0.00 0.00 58 1024.8
20150306025406 14 339 0.0 4.0 0.00 0.00 0.00 58 1024.8
20150306023906 14 360 0.0 3.0 0.00 0.00 0.00 57 1024.5
20150306022510 15 62 1.0 7.0 0.00 0.00 0.00 58 1024.3
20150306022306 14 10 0.0 8.0 0.00 0.00 0.00 58 1024.2
20150306021509 15 3 3.0 8.0 0.00 0.00 0.00 56 1023.9
20150306020806 14 325 1.0 7.0 0.00 0.00 0.00 56 1023.8
20150306020509 15 297 2.0 5.0 0.00 0.00 0.00 57 1023.6
20150306015509 15 46 2.0 12.0 0.00 0.00 0.00 57 1022.9
20150306015206 15 34 1.0 11.0 0.00 0.00 0.00 57 1023.0
20150306014509 15 24 3.0 12.0 0.00 0.00 0.00 57 1023.1
20150306013706 15 178 1.0 5.0 0.00 0.00 0.00 57 1023.2
20150306013509 15 330 2.0 7.0 0.00 0.00 0.00 57 1023.0
20150306012206 15 267 0.0 9.0 0.00 0.00 0.00 58 1022.7
20150306011509 15 312 0.0 3.0 0.00 0.00 0.00 57 1022.7
20150306010617 15 226 1.0 6.0 0.00 0.00 0.00 57 1022.6
20150306005509 16 344 3.0 12.0 0.00 0.00 0.00 56 1022.7
20150306005114 15 54 2.0 12.0 0.00 0.00 0.00 56 1022.9
20150306003509 16 5 3.0 7.0 0.00 0.01 0.00 55 1022.6
20150306003507 16 5 2.0 6.0 0.00 0.00 0.00 55 1022.6
20150306002007 16 16 1.0 6.0 0.00 0.00 0.00 56 1022.3
20150306001509 16 5 2.0 9.0 0.00 0.01 0.00 55 1022.3
20150306000508 16 331 0.0 3.0 0.00 0.00 0.00 55 1021.8
20150305235509 17 306 1.0 3.0 0.00 0.02 0.00 55 1021.8
20150305234906 16 309 1.0 6.0 0.00 0.00 0.00 55 1021.6
20150305233509 17 343 1.0 7.0 0.00 0.02 0.00 55 1021.9
20150305233306 17 343 1.0 9.0 0.00 0.00 0.00 55 1021.8
20150305232006 17 214 2.0 11.0 0.00 0.00 0.00 55 1020.7
20150305230205 17 140 0.0 3.0 0.00 0.00 0.00 54 1020.7
20150305225511 18 332 0.0 3.0 0.00 0.04 0.00 53 1020.2
20150305224805 18 136 0.0 4.0 0.00 0.00 0.00 53 1020.5
20150305223509 18 306 1.0 3.0 0.00 0.05 0.00 52 1019.9
20150305223205 18 306 0.0 3.0 0.00 0.00 0.00 51 1019.9
20150305221705 18 306 1.0 3.0 0.00 0.00 0.00 51 1019.5
20150305221510 18 31 0.0 6.0 0.00 0.06 0.00 51 1019.6
20150305220509 19 9 2.0 6.0 0.00 0.07 0.00 50 1019.5
20150305220206 18 294 1.0 6.0 0.00 0.00 0.00 51 1019.3
20150305215509 19 321 2.0 6.0 0.00 0.08 0.00 51 1019.5
20150305214509 19 55 0.0 7.0 0.00 0.10 0.00 51 1019.2
20150305214506 18 55 0.0 6.0 0.00 0.01 0.00 51 1019.1
20150305213509 19 287 1.0 7.0 0.00 0.11 0.00 51 1019.2
20150305213005 19 246 1.0 8.0 0.00 0.01 0.00 51 1019.0
20150305212509 19 330 2.0 9.0 0.00 0.13 0.00 51 1018.8
20150305211508 19 317 5.0 8.0 0.00 0.14 0.00 52 1019.1
20150305211410 19 332 1.0 8.0 0.00 0.01 0.00 52 1019.0
20150305210509 19 343 1.0 10.0 0.00 0.15 0.00 52 1018.8
20150305205907 19 319 2.0 11.0 0.00 0.01 0.00 53 1018.9
20150305205510 19 340 1.0 7.0 0.00 0.16 0.00 52 1018.9
20150305204508 20 24 2.0 10.0 0.00 0.18 0.00 53 1018.8
20150305204405 19 348 2.0 10.0 0.00 0.02 0.00 53 1018.8
20150305203509 20 255 1.0 5.0 0.00 0.19 0.00 53 1018.6
20150305202905 20 333 1.0 6.0 0.00 0.02 0.00 55 1018.4
20150305202509 20 323 2.0 8.0 0.00 0.20 0.00 54 1018.7
20150305201509 20 109 1.0 6.0 0.00 0.21 0.00 56 1018.5
20150305201206 20 328 0.0 9.0 0.00 0.02 0.00 55 1018.5
20150305200509 21 9 2.0 6.0 0.00 0.21 0.00 55 1018.7